Tracking 29606 objects as of 18-Sep-2024
HD Live streaming from Space Station
objects crossing your sky now

STARLINK-1940

Track STARLINK-1940 now!
10-day predictions
STARLINK-1940 is classified as:


NORAD ID: 47552
Int'l Code: 2021-009E
Perigee: 553.4 km
Apogee: 555.2 km
Inclination: 53.1 °
Period: 95.6 minutes
Semi major axis: 6925 km
RCS: Unknown
Launch date: February 4, 2021
Source: United States (US)
Launch site: AIR FORCE EASTERN TEST RANGE (AFETR)
Your satellite tracking list
Your tracking list is empty




NASA's NSSDC Master Catalog

Two Line Element Set (TLE):
1 47552U 21009E   24261.74903046  .00010797  00000-0  74222-3 0  9997
2 47552  53.0523 266.5266 0001297  89.7402 270.3736 15.06419117199850
Source of the keplerian elements: AFSPC